Theta_e
320 319 317 315 313 311 310 310 310 312 313 311 309 309 309 308 308 309 309 310 310 310 311 311 312 312 311 311 310 312 315 319 325 327 328 323 313 315 320 323 324 321 319 319 321 319 323 327 327 328 330 332 334 335 335 339 346 350 362 363 355 367 369 361 369 368 362 364 368 372 376 372 369 369 362 360 358 354 354 350 348 350 350 350 351 352 353 352
318 318 316 313 311 309 308 308 308 310 312 312 311 309 308 308 308 308 308 309 309 309 310 311 311 311 310 310 310 312 318 323 328 332 332 318 316 321 322 327 326 321 319 319 318 319 325 329 329 330 332 334 332 332 330 331 345 353 361 362 358 371 367 360 367 367 362 364 373 373 373 373 367 367 365 365 366 358 356 353 350 352 351 350 351 352 353 352
313 313 312 310 309 307 307 307 307 309 311 313 312 311 309 308 308 308 309 308 309 309 309 310 310 310 310 310 310 314 321 327 337 343 334 322 323 325 327 330 326 322 321 319 317 317 323 327 328 330 332 333 330 330 327 329 344 351 361 366 365 369 364 364 368 368 369 371 376 372 371 374 366 366 369 369 369 364 363 360 354 353 351 350 351 352 353 352
308 308 308 307 307 307 306 307 307 308 310 312 313 312 311 309 309 309 309 309 309 309 309 310 310 310 310 310 311 316 324 332 341 338 332 329 329 330 332 331 325 321 318 316 316 318 321 324 326 330 329 327 325 324 324 328 339 345 358 369 364 365 368 370 372 372 373 372 375 373 371 371 366 366 369 369 365 363 368 368 361 353 351 349 349 352 352 352
306 306 306 306 307 306 306 307 307 308 309 311 313 313 312 310 310 309 309 309 309 310 310 310 309 310 310 310 314 321 329 338 336 330 328 327 326 328 331 326 319 315 314 314 318 321 324 326 327 330 327 323 322 322 323 325 339 351 354 360 361 364 371 372 372 375 371 369 373 373 370 367 366 369 370 368 363 364 364 362 361 351 348 348 348 351 351 350
307 307 307 307 307 307 306 307 307 308 308 310 312 313 313 311 310 309 309 309 310 310 310 310 310 311 310 311 319 325 332 336 333 329 326 324 320 319 320 317 314 313 314 319 324 328 330 331 329 328 323 322 323 322 323 324 342 362 357 355 360 363 369 368 368 371 367 370 375 373 369 365 367 371 369 368 370 374 364 353 357 352 347 347 347 350 350 350
307 307 307 308 308 308 307 307 307 307 308 309 311 313 313 311 310 309 311 314 315 315 314 313 312 311 310 316 326 330 334 335 330 329 326 323 320 315 313 313 313 313 317 324 329 331 331 330 328 327 322 322 323 322 330 337 345 358 359 358 361 362 366 365 366 369 368 372 374 368 367 368 372 366 363 371 373 372 367 354 352 351 347 346 347 347 348 350
308 308 308 308 308 308 308 308 308 308 308 309 310 312 313 312 310 310 315 319 319 319 319 317 314 312 311 319 329 335 340 339 330 329 325 322 321 316 314 313 314 315 320 326 328 328 327 326 325 324 322 321 323 322 332 348 350 351 358 360 361 363 365 363 364 369 371 370 366 366 370 371 372 362 360 373 372 370 369 356 349 348 347 347 346 347 347 347
307 308 308 308 308 309 309 309 309 309 309 310 310 312 312 312 310 312 319 320 318 319 321 319 315 312 314 323 332 336 341 336 328 326 322 321 321 316 314 314 315 318 322 323 324 325 323 322 322 321 321 320 322 324 328 345 354 353 355 358 361 363 363 363 366 368 369 366 363 370 371 368 366 359 365 374 369 369 366 357 358 351 346 348 346 347 347 346
308 308 308 308 308 309 309 310 310 310 310 310 311 312 312 312 310 314 319 319 318 319 321 320 314 312 318 328 334 333 334 331 328 327 320 320 320 317 316 316 317 320 322 321 321 322 322 322 322 321 320 319 323 327 323 330 345 352 354 359 362 363 364 362 367 367 365 362 364 376 374 367 365 360 370 378 370 366 360 361 367 359 351 349 348 348 347 346
308 308 308 308 308 309 309 309 310 310 311 311 312 312 312 312 310 316 320 319 319 320 321 318 313 315 321 329 330 326 329 330 328 326 323 321 321 321 321 320 320 320 321 320 321 321 322 322 321 320 319 322 325 326 323 324 339 353 357 365 363 363 365 363 368 367 366 364 363 376 374 366 365 364 375 378 371 364 359 362 364 360 358 355 357 358 351 346
308 308 308 308 308 308 309 309 310 311 312 312 313 313 312 312 311 317 320 318 319 319 319 315 314 319 325 332 332 327 327 330 329 326 325 324 323 324 324 325 324 323 323 321 322 323 323 322 321 319 318 324 324 324 324 323 342 356 357 371 368 366 368 366 369 365 369 370 365 372 371 370 372 372 382 374 363 359 356 363 364 362 362 359 363 365 357 350
308 308 308 308 308 308 308 309 309 310 312 313 313 313 313 312 312 317 320 319 319 319 316 315 318 322 329 336 334 327 326 329 328 325 325 325 324 325 325 327 326 326 325 324 325 324 324 323 321 319 320 324 323 324 324 320 340 352 351 367 368 363 367 370 368 365 371 369 366 367 359 373 383 374 378 370 361 360 357 360 363 363 361 359 363 365 360 353
308 308 308 308 309 309 308 309 309 310 312 313 314 313 313 312 312 317 320 319 319 319 316 317 321 326 333 337 330 327 330 329 327 325 325 325 325 325 325 326 326 327 327 326 325 323 323 323 321 321 322 323 322 323 323 319 330 341 344 358 364 356 362 372 368 368 372 363 365 362 353 372 387 376 374 366 364 364 358 358 360 362 360 358 361 360 358 354
308 308 308 309 309 309 309 308 309 310 312 313 314 314 313 312 313 318 321 320 320 320 320 321 323 328 338 339 330 327 329 327 326 326 325 325 325 324 324 325 326 326 324 323 322 322 323 321 320 322 323 323 322 320 322 322 322 329 331 336 350 350 355 370 368 368 373 365 364 362 361 374 377 374 373 365 367 365 358 357 356 361 360 356 358 359 356 355
308 308 308 309 309 309 309 309 309 310 312 314 315 314 313 312 314 319 322 322 321 321 322 327 326 328 340 340 331 327 324 324 326 326 325 325 325 324 324 324 324 323 322 321 321 322 321 320 321 324 322 321 321 320 322 322 321 325 321 324 341 346 351 369 370 367 372 370 367 365 369 373 366 370 374 367 368 366 363 358 355 361 362 356 356 358 357 356
308 308 308 309 309 309 309 309 310 311 313 315 315 315 313 313 315 321 325 323 322 323 323 326 326 328 337 337 331 330 326 323 324 325 326 324 325 325 323 321 320 320 320 319 321 320 319 320 322 324 322 321 321 321 319 314 316 322 318 322 341 351 353 363 367 366 368 370 371 368 369 369 365 369 375 373 370 367 368 362 356 360 361 358 357 357 357 357
308 308 308 308 309 309 309 309 310 312 314 315 315 315 313 315 320 325 328 326 326 327 326 327 327 328 333 335 337 335 326 323 325 325 326 325 325 325 322 321 319 319 319 318 319 319 319 321 322 322 321 320 320 320 315 313 315 317 318 323 336 349 352 356 361 364 366 369 372 369 370 370 367 370 374 374 373 372 372 366 361 359 358 357 357 358 356 355
308 308 308 308 309 309 309 310 311 313 315 316 315 314 318 324 329 330 327 327 330 332 332 334 332 329 330 333 336 334 327 325 326 324 325 325 324 323 323 322 321 321 319 319 320 319 320 322 321 320 320 320 320 319 316 318 319 317 322 334 341 343 345 355 362 360 362 366 370 372 371 369 367 372 374 372 375 374 370 368 366 362 360 359 360 363 357 354
308 308 308 308 309 309 310 312 313 314 316 318 316 317 326 332 334 334 331 333 335 330 327 332 334 331 328 328 328 329 327 325 324 324 325 325 323 322 323 322 321 321 320 320 321 321 322 322 322 320 320 321 320 319 319 318 321 318 320 333 343 339 338 350 359 361 362 359 361 368 367 364 368 374 374 372 372 371 367 368 369 370 367 363 365 367 359 354
308 308 309 309 309 309 311 313 314 315 318 319 319 321 326 327 327 329 331 335 334 329 327 329 330 329 328 327 327 324 322 322 323 323 323 323 323 322 323 323 322 323 322 321 320 323 323 320 321 322 321 322 320 320 321 318 319 319 316 322 329 331 339 353 359 363 363 353 350 360 363 362 368 371 369 369 369 369 370 371 372 372 369 362 362 365 361 357
309 309 308 309 310 310 313 314 314 317 319 318 319 320 321 322 323 323 324 327 327 328 330 331 328 328 328 327 328 326 323 323 322 323 323 322 322 322 323 323 322 323 323 321 321 322 322 320 322 322 321 321 321 321 320 320 320 319 318 317 318 327 341 351 360 364 360 348 348 358 363 363 365 366 364 368 371 371 370 371 371 368 367 363 360 361 361 358
309 309 309 309 310 311 315 315 316 318 318 316 318 320 321 322 323 323 324 327 326 325 329 329 328 329 329 328 329 328 325 324 324 324 323 321 322 323 324 323 322 323 321 321 321 318 316 320 322 322 322 321 321 321 321 323 321 320 319 314 315 326 333 334 348 363 359 350 354 362 363 363 364 365 365 366 370 371 367 368 369 365 365 364 360 360 362 360
309 309 309 311 311 313 316 316 318 319 316 316 319 320 322 324 323 322 326 329 328 327 325 326 327 328 329 329 328 327 325 324 325 325 322 322 323 322 323 324 323 323 322 322 322 319 318 321 322 322 322 321 321 323 323 321 319 321 320 314 316 324 329 336 349 359 354 347 360 367 356 357 366 366 365 364 365 367 365 365 366 364 363 361 361 360 359 357
309 309 310 312 312 315 316 317 319 317 315 318 320 321 323 325 323 322 327 332 331 329 327 325 326 328 328 328 327 325 324 324 324 325 323 322 321 322 324 324 323 324 324 322 321 321 320 320 322 323 322 322 322 323 325 321 317 316 319 320 320 317 327 345 355 353 343 337 352 361 344 346 361 366 365 363 363 362 359 362 363 362 361 360 360 356 353 352
309 309 311 312 313 315 318 320 318 315 317 320 321 322 323 324 323 322 330 334 329 329 329 326 326 328 328 326 325 324 323 324 325 323 322 322 322 323 323 323 324 324 323 323 323 322 322 322 322 323 323 323 323 322 323 322 315 312 319 325 323 324 338 350 350 348 341 337 350 360 348 343 348 355 362 362 364 362 358 362 362 359 359 358 357 353 349 349
309 310 311 313 314 314 318 321 316 316 320 319 321 324 323 323 322 322 332 332 329 331 327 325 325 326 326 324 323 324 322 323 324 322 323 323 322 322 323 323 324 323 323 324 322 322 324 324 323 324 325 323 322 321 324 324 315 314 325 329 327 333 346 351 345 345 349 345 346 358 359 348 344 355 364 362 362 362 360 363 360 356 356 355 355 353 347 347
309 311 312 314 314 313 315 318 316 317 318 317 321 324 324 323 322 326 333 330 333 330 324 323 324 323 324 324 323 326 326 324 325 323 322 323 323 322 322 323 323 322 325 321 316 321 325 324 323 326 324 321 322 323 325 324 319 322 329 330 328 328 338 344 338 341 349 339 332 345 353 343 343 360 370 363 361 362 363 365 361 357 355 353 352 351 348 347
309 311 313 314 315 315 316 316 316 318 316 317 320 323 324 322 324 333 334 328 330 326 325 324 323 324 324 323 323 325 326 325 325 324 323 322 322 322 322 323 323 322 323 321 320 323 324 324 326 325 323 323 325 325 325 324 324 328 327 326 331 330 332 340 341 339 337 330 328 335 344 343 342 353 360 357 358 365 366 362 361 359 355 352 351 350 349 348
310 313 314 314 315 315 315 314 316 318 316 316 319 323 324 325 332 332 325 326 329 326 325 324 324 325 324 324 324 324 324 324 326 324 322 322 322 322 323 324 322 322 324 323 323 324 323 326 328 326 326 326 324 324 323 324 325 326 325 330 338 343 347 356 364 350 327 328 337 333 337 346 343 348 359 357 359 368 368 361 359 360 356 352 351 351 349 348
312 314 315 315 314 314 315 317 317 317 316 317 322 325 325 329 335 329 323 326 327 325 324 324 326 326 324 324 324 324 324 324 324 323 322 322 322 321 322 323 323 324 326 323 322 325 324 324 326 328 330 326 323 325 324 324 325 324 330 335 333 337 345 349 354 344 324 329 342 337 339 344 338 348 367 368 361 362 368 367 362 360 358 354 353 352 350 352
312 316 317 315 316 316 317 320 318 316 317 322 325 327 331 328 322 323 327 325 322 325 326 325 326 325 324 324 324 324 324 324 324 323 323 322 323 323 322 324 324 319 318 320 320 323 325 326 324 325 329 326 323 325 324 327 330 327 329 327 322 323 327 329 332 331 327 331 336 341 349 346 342 354 369 369 361 359 365 367 362 359 357 357 356 355 355 357
314 318 317 317 319 318 318 318 317 317 321 326 326 329 336 327 319 322 325 320 319 324 327 326 326 327 325 323 325 324 323 324 324 323 323 323 323 324 320 323 326 320 318 321 317 315 322 328 326 322 324 325 324 322 319 322 328 327 322 318 318 321 321 323 329 330 330 330 330 343 351 342 345 357 360 363 362 364 364 357 355 357 354 356 357 356 358 360
316 319 318 319 321 318 318 317 317 320 323 326 329 333 329 322 324 328 323 321 323 324 326 327 326 326 325 324 324 324 322 323 324 323 324 323 321 321 322 321 324 322 321 320 316 314 315 320 325 322 320 323 325 325 322 323 325 324 327 326 320 322 321 321 328 328 327 330 334 343 347 339 343 352 352 359 361 362 362 353 353 356 353 353 354 355 358 359
318 319 319 322 322 321 323 321 320 322 323 328 335 334 324 319 325 327 324 326 325 324 326 326 327 325 323 325 324 323 323 321 323 324 322 323 320 320 323 321 322 324 321 317 319 319 313 315 325 325 323 325 325 326 326 326 324 324 329 327 317 321 325 322 326 326 326 336 341 343 345 344 349 355 354 357 357 356 360 356 354 354 354 353 353 355 358 357
319 319 321 324 323 324 326 324 322 322 326 335 332 325 323 323 326 325 326 327 323 325 325 323 326 322 316 321 323 323 324 322 323 323 320 323 321 321 323 322 323 322 321 321 323 322 315 317 328 327 325 329 326 326 326 323 325 328 323 320 320 324 326 320 320 325 331 341 342 339 344 347 350 358 358 355 353 354 361 362 358 355 355 354 353 355 356 356
318 320 323 325 325 326 325 324 324 324 330 337 331 327 328 325 324 324 326 325 323 325 324 319 324 321 314 316 321 322 323 321 322 320 318 321 322 323 323 323 325 323 322 325 324 326 322 319 329 330 324 328 328 327 332 328 327 325 317 321 328 328 330 328 322 325 337 344 341 339 343 343 343 351 357 356 356 355 360 366 365 362 357 354 355 355 357 357
318 320 325 328 328 327 325 324 325 326 329 333 336 338 333 325 323 323 323 323 323 324 321 318 323 324 318 315 319 324 322 319 319 319 318 318 320 324 324 323 326 324 324 327 326 328 327 318 325 333 324 327 332 329 329 330 327 325 322 328 329 319 322 328 322 323 333 340 342 343 344 342 343 350 354 357 362 361 363 368 369 366 362 359 358 358 358 357
319 325 332 330 328 328 328 326 327 328 329 330 333 333 327 324 324 322 322 322 321 322 321 321 323 325 323 319 320 326 324 319 320 319 317 318 319 324 325 325 325 324 325 330 328 329 333 322 320 331 329 326 333 330 322 322 328 329 328 331 331 323 322 323 322 323 329 334 340 343 343 344 351 360 360 359 364 365 365 368 369 368 368 368 364 361 359 358
320 329 333 329 328 329 328 327 327 329 330 333 333 327 322 322 321 320 322 321 320 322 323 325 325 323 324 322 321 324 325 324 323 321 320 321 320 322 325 325 325 325 325 327 329 331 334 325 317 329 336 326 327 329 323 324 328 326 325 324 324 325 325 326 326 323 325 332 337 343 345 348 360 369 364 359 361 363 366 370 371 370 370 371 368 365 361 358
322 332 334 328 327 329 327 326 327 329 331 332 329 324 322 322 321 321 322 320 320 323 324 326 325 324 324 323 322 323 325 326 325 323 323 321 320 321 324 325 325 325 326 328 331 330 330 327 321 324 326 320 325 333 329 329 330 327 325 322 321 323 323 325 327 324 325 328 332 341 345 349 365 371 364 361 361 363 367 370 371 369 369 370 370 368 364 360
326 335 334 326 324 327 326 326 329 329 328 328 326 323 323 325 324 322 321 321 320 323 326 325 324 325 324 323 323 324 324 325 324 324 323 323 323 323 325 327 325 327 329 328 328 332 340 341 328 321 325 326 326 330 332 331 331 331 330 326 325 326 326 326 325 325 327 327 332 342 343 349 369 372 365 365 363 362 365 369 371 367 366 369 369 368 366 364
322 326 328 323 323 323 322 328 331 329 325 325 324 322 323 325 323 322 322 322 321 323 326 326 324 324 324 322 323 323 323 322 324 324 324 325 325 325 326 326 324 326 329 327 328 334 342 341 327 326 343 349 338 337 341 338 334 331 330 331 329 322 327 333 330 331 333 327 330 342 340 345 364 372 370 369 364 363 364 367 371 367 364 367 369 369 367 366
316 317 324 326 325 322 322 327 332 330 327 324 322 322 323 323 322 323 323 321 323 325 324 325 325 323 323 322 322 322 321 320 323 325 326 325 325 327 327 325 326 326 325 331 334 328 329 335 333 331 337 341 340 341 336 334 336 334 331 333 331 328 333 334 331 337 335 325 331 342 338 342 358 366 367 367 364 362 362 363 367 367 365 366 368 370 367 368
318 322 326 327 325 323 325 327 326 326 326 324 323 323 322 323 324 325 324 323 324 325 325 325 324 324 324 323 322 324 321 320 321 324 326 326 326 328 326 325 328 324 328 347 348 333 336 349 352 339 328 326 331 332 330 332 335 333 334 333 329 332 335 333 332 333 329 328 339 343 337 343 359 362 364 366 364 362 364 362 361 363 365 366 367 368 367 369
326 333 333 328 327 326 327 326 324 325 326 326 326 326 323 326 328 327 327 326 324 324 325 326 325 325 325 324 324 325 323 323 322 323 326 325 324 328 326 329 335 336 346 359 351 341 344 351 363 355 333 329 340 346 348 343 330 324 330 332 328 330 336 338 332 328 330 334 338 341 342 346 354 361 363 364 363 363 365 363 360 362 365 365 367 367 367 370
327 335 332 326 329 330 328 328 326 326 328 327 328 328 327 328 329 328 328 328 326 325 325 326 325 324 325 326 325 324 325 326 325 324 326 327 327 327 326 332 342 353 361 352 344 353 343 329 345 353 333 333 352 358 351 338 326 323 325 327 331 336 338 333 325 328 338 335 331 344 354 346 348 359 362 360 362 362 364 365 362 362 363 363 366 367 368 369
328 331 327 323 329 332 329 329 328 326 327 327 327 329 327 328 329 329 329 329 326 326 326 328 327 325 326 326 323 325 327 325 327 331 333 333 333 332 331 332 336 347 349 332 336 359 347 327 332 335 326 333 342 341 340 334 329 331 328 327 333 338 336 330 326 335 345 335 334 349 353 344 348 358 357 357 360 360 362 363 359 359 360 361 363 367 368 367
328 328 325 322 325 327 326 327 328 328 328 329 332 331 327 327 328 327 327 328 328 327 326 328 328 326 327 326 324 327 327 322 326 334 336 336 335 333 335 335 332 335 333 323 328 341 339 333 336 328 324 331 334 333 338 335 329 330 331 330 329 333 340 337 331 337 343 339 344 355 352 347 351 353 353 354 355 357 359 359 359 360 361 362 364 366 366 366
326 326 326 324 324 326 326 326 328 329 328 329 332 331 326 326 327 326 326 327 328 328 326 326 329 328 328 329 328 330 331 330 333 334 334 336 337 337 336 333 331 331 329 328 331 331 328 330 344 347 330 325 335 339 338 336 330 328 334 339 334 332 340 340 335 337 339 335 340 349 348 343 343 347 352 351 352 356 358 359 362 362 362 364 365 363 363 364
321 322 323 324 328 330 329 327 326 327 331 331 329 329 328 328 328 327 326 327 326 326 325 324 328 331 331 333 333 332 333 335 336 332 331 334 334 335 335 333 331 331 332 332 330 331 333 331 345 356 330 320 332 335 329 335 333 327 333 339 335 332 333 334 337 341 340 337 338 341 341 340 341 347 351 352 353 356 358 361 362 360 361 364 363 363 364 363
318 320 321 323 330 333 329 327 327 328 334 334 329 328 329 328 328 326 326 329 325 322 324 324 326 331 334 332 330 330 330 331 332 330 330 333 332 331 332 332 331 329 332 335 330 332 341 335 336 342 329 324 335 332 329 336 328 326 337 338 332 337 338 335 338 342 346 349 345 340 340 343 347 350 353 355 355 356 359 361 360 358 360 362 364 368 366 364
Wind_Speed
17 17 18 18 18 19 19 20 20 19 17 15 13 12 11 10 11 11 11 12 12 14 15 15 14 14 15 16 17 18 19 17 10 4 6 7 6 10 7 3 2 3 7 9 9 6 4 6 11 13 7 3 4 3 6 9 4 3 2 1 2 2 3 5 7 6 4 4 5 3 1 1 1 4 4 2 3 7 4 4 9 7 8 12 19 29 30 28
18 18 19 19 19 20 21 21 21 20 19 17 15 13 12 11 11 11 12 13 13 14 14 15 14 14 14 15 16 17 18 15 9 6 8 6 7 11 9 6 6 5 6 8 10 8 5 5 5 5 4 3 4 3 4 6 5 4 2 3 3 4 4 5 8 7 4 5 5 4 3 2 2 2 4 3 4 7 5 7 10 11 11 15 23 29 27 28
19 20 20 20 20 21 22 22 22 21 20 18 16 15 13 12 12 12 13 13 14 14 14 15 14 14 14 14 14 15 15 10 5 6 5 7 10 10 9 7 8 8 8 9 9 9 9 8 6 2 4 4 4 5 4 4 5 4 3 2 4 5 3 3 7 6 5 8 7 4 4 3 3 1 2 3 1 3 4 4 8 13 14 16 20 24 26 26
22 21 21 21 22 23 23 23 22 22 21 20 18 16 15 14 13 13 13 13 14 14 14 14 13 13 13 13 13 13 10 4 2 4 2 5 10 10 10 10 10 10 10 9 8 9 10 10 8 4 3 4 3 4 5 5 5 4 5 4 5 5 3 3 6 5 6 8 7 5 4 3 3 2 1 3 4 2 1 2 7 14 16 17 18 20 23 23
22 22 22 23 23 24 24 24 24 23 23 22 20 17 15 15 14 14 14 14 15 14 14 14 13 12 11 11 11 9 6 2 3 5 3 3 5 8 11 11 10 10 9 8 7 6 8 8 5 2 1 3 3 1 4 7 5 3 3 6 8 7 4 5 6 7 5 5 6 5 4 3 3 3 1 3 4 3 3 2 7 13 16 17 19 19 19 19
23 23 24 24 24 25 25 25 25 25 24 24 22 19 17 15 14 14 14 15 15 15 14 13 11 10 10 9 7 5 2 1 5 5 5 2 3 6 8 10 10 9 9 7 4 3 5 4 1 2 1 3 5 5 8 7 7 5 1 5 7 7 7 6 6 7 6 6 6 5 3 2 2 1 1 3 4 5 3 2 7 11 15 17 19 19 17 16
23 24 25 25 25 26 26 26 25 25 25 25 24 22 18 15 14 14 15 15 14 14 13 11 10 8 7 5 3 2 2 4 7 4 6 4 4 6 7 9 9 9 8 6 2 2 2 3 2 2 2 4 5 5 6 4 8 9 3 5 5 7 9 7 7 6 6 6 6 6 4 2 3 2 1 3 7 7 5 3 6 10 14 17 16 17 18 17
24 24 25 25 26 26 26 26 26 26 25 25 25 23 20 16 15 14 14 14 13 13 10 9 7 5 5 2 1 2 1 5 4 5 6 5 5 6 8 9 9 9 9 6 5 2 1 3 4 3 3 5 4 3 2 6 5 7 7 5 4 5 6 7 7 5 4 4 4 7 5 3 5 2 1 4 7 6 7 4 6 9 12 14 14 15 16 18
24 25 25 26 27 27 27 27 27 26 26 26 26 24 21 17 15 14 14 14 14 11 8 6 3 1 3 1 1 2 3 4 5 5 4 5 6 6 8 8 9 10 8 8 9 4 1 2 5 4 2 6 3 4 2 5 1 4 8 8 6 5 6 6 6 6 4 3 4 6 4 1 3 2 2 6 7 6 4 2 4 8 11 12 12 12 14 14
25 25 26 26 27 28 28 28 27 27 26 26 26 25 21 16 14 14 14 15 14 9 6 4 1 1 2 1 3 2 4 6 8 5 4 6 7 6 7 7 9 10 7 8 9 6 4 5 7 4 3 6 3 6 4 2 2 4 9 7 8 7 5 5 5 5 3 2 5 5 4 1 1 1 2 6 8 6 3 4 4 6 9 11 9 10 13 11
25 26 26 27 27 28 28 29 28 28 27 26 26 25 21 16 13 13 14 15 13 6 4 2 1 2 2 2 4 2 5 8 9 6 7 7 7 7 8 8 8 10 9 7 9 10 9 10 10 4 4 4 4 7 4 1 0 8 12 7 5 3 1 2 4 5 3 2 5 5 5 1 2 0 5 6 5 5 6 4 4 5 6 8 7 7 9 8
25 26 27 27 28 29 29 30 30 29 28 26 25 25 21 15 12 12 13 14 11 5 3 1 1 2 2 2 4 5 6 10 8 8 8 6 5 7 9 9 8 9 11 7 9 14 13 13 9 4 4 1 4 5 2 2 3 8 10 7 3 3 2 3 2 4 4 3 6 4 4 1 1 5 9 5 4 5 7 5 5 5 4 6 5 5 5 6
25 27 27 28 28 29 30 30 31 30 29 27 25 25 21 13 10 11 12 12 8 5 3 1 1 1 2 1 6 6 4 9 10 10 9 4 3 6 7 9 9 9 12 11 12 15 15 15 9 4 4 1 1 4 3 3 6 5 4 6 3 2 3 7 3 3 3 3 7 5 3 4 5 10 10 4 4 6 6 5 5 5 4 5 4 4 3 4
26 27 28 29 29 30 31 31 32 31 30 27 25 24 18 11 9 10 9 9 7 5 2 1 0 1 2 4 10 10 8 8 13 13 10 8 8 8 9 11 12 13 14 15 16 14 16 16 9 4 2 1 1 4 6 4 5 5 2 2 3 2 3 6 3 4 2 3 7 6 2 6 7 9 10 5 5 7 7 7 7 6 5 4 4 5 4 4
26 27 28 29 30 30 31 32 32 32 31 28 26 22 15 9 8 8 6 6 5 4 2 1 1 1 1 7 11 8 3 9 17 15 10 11 13 9 12 16 16 16 13 13 14 14 15 13 7 3 2 2 2 4 5 4 1 4 5 1 1 3 3 4 3 7 4 2 6 5 2 5 7 8 7 5 6 7 7 7 7 7 6 6 5 4 5 4
27 28 29 30 30 31 32 32 33 33 32 29 26 19 11 8 8 6 5 4 3 2 2 3 2 1 1 5 7 5 3 9 14 14 12 13 14 11 14 16 16 16 13 11 11 12 12 8 3 2 1 3 2 2 3 5 4 1 3 4 2 3 1 3 3 8 6 2 5 4 1 2 6 7 4 6 8 7 6 6 7 7 6 6 5 4 5 4
28 29 30 30 31 32 32 33 33 34 32 29 25 16 8 9 7 5 4 2 2 2 1 1 3 2 2 5 6 5 6 8 10 14 14 13 15 13 11 8 9 12 11 9 8 8 5 2 2 1 1 1 2 4 3 3 4 4 1 3 3 5 4 3 2 6 7 3 6 7 4 4 5 5 4 7 8 7 6 6 6 7 6 5 5 5 5 5
28 30 30 31 32 32 32 33 33 34 32 27 22 15 9 8 6 3 0 3 1 1 1 2 2 1 3 4 4 3 6 10 13 14 14 13 14 13 8 6 4 5 4 4 4 3 1 1 1 1 3 1 1 4 3 4 5 4 3 3 2 5 7 6 3 5 9 6 6 7 6 9 7 3 4 6 6 7 6 3 2 5 6 5 5 5 5 6
29 30 30 31 32 32 33 33 33 34 30 23 18 13 6 3 2 2 4 4 2 1 2 2 3 2 3 5 5 5 6 12 13 12 13 12 12 11 7 6 3 4 3 0 2 2 2 1 2 0 3 4 5 6 8 9 6 6 5 4 4 6 6 6 3 4 11 8 5 8 8 8 5 4 4 4 4 5 3 2 2 3 5 5 5 4 6 6
29 31 31 32 32 32 33 32 33 32 25 19 16 9 3 3 3 1 1 2 4 5 6 5 6 4 6 8 6 4 7 11 8 9 14 12 8 5 3 2 1 1 2 3 2 2 3 2 2 5 7 9 10 9 10 11 9 7 6 3 6 6 4 5 4 4 9 7 5 9 7 4 5 6 5 4 4 3 1 1 1 4 4 5 4 4 6 6
30 30 31 32 32 33 32 32 33 27 19 17 15 7 1 1 2 3 4 4 7 9 10 10 10 9 11 11 8 4 4 5 4 6 13 12 5 3 2 1 2 2 4 4 2 1 3 3 8 10 12 13 11 8 9 11 10 10 7 4 4 4 6 7 4 5 8 4 3 5 5 5 5 6 5 4 4 3 3 4 4 5 5 4 4 5 5 5
30 29 32 32 32 33 31 31 31 21 15 18 14 4 2 7 9 10 6 5 8 9 12 13 10 10 15 17 19 15 4 1 4 5 10 10 5 3 2 2 4 4 3 3 1 2 0 5 13 14 12 11 9 8 10 11 9 7 4 2 2 3 4 4 1 5 6 1 2 4 5 3 2 4 3 4 5 2 4 4 2 5 6 4 4 5 4 5
29 30 32 31 33 33 30 32 26 14 15 20 13 4 10 18 18 14 6 3 8 7 9 10 9 8 11 14 16 15 8 4 5 5 9 10 4 5 4 3 5 4 2 3 4 3 2 8 16 14 9 8 10 10 9 5 2 2 2 1 4 3 4 2 1 5 4 1 2 5 5 2 2 2 2 1 3 2 1 3 3 2 4 3 2 2 1 4
29 31 31 32 34 31 31 31 17 9 20 22 11 8 18 23 18 13 4 1 6 6 6 10 9 5 10 11 9 10 8 6 6 5 10 11 4 3 5 5 4 4 5 6 6 6 9 13 13 10 10 11 10 7 3 1 3 4 3 3 4 5 4 3 3 6 4 1 3 7 5 3 1 1 1 2 1 3 3 4 4 4 1 1 2 3 3 4
30 31 32 34 33 31 34 22 5 13 26 17 8 12 19 20 20 16 5 1 4 5 5 7 6 6 12 10 7 8 5 4 5 6 12 14 8 3 3 4 4 5 8 8 7 7 12 16 9 5 9 11 9 5 3 3 4 4 3 6 7 9 5 6 8 7 5 1 3 5 4 3 4 2 3 2 2 3 2 2 3 5 3 2 1 3 4 5
30 31 32 33 32 34 29 9 6 23 22 8 8 17 18 17 23 19 4 3 4 4 3 3 4 6 10 6 4 4 3 3 6 9 14 15 11 5 3 2 1 5 7 5 4 3 7 10 6 5 5 5 4 4 3 4 3 2 4 7 6 4 4 10 11 6 4 5 5 3 5 2 4 3 5 4 2 1 2 2 2 3 4 1 1 3 4 3
31 32 33 33 32 33 20 7 16 21 8 5 13 18 16 16 21 14 4 3 4 4 2 1 2 5 7 6 6 6 2 5 2 5 12 15 11 4 3 4 2 4 4 1 2 2 2 2 1 2 1 1 1 2 4 3 4 3 6 5 3 4 8 12 10 5 4 4 1 1 5 3 2 4 5 6 4 3 2 1 2 3 3 2 0 3 5 4
32 33 33 32 32 28 15 12 17 12 5 11 17 16 15 16 16 7 4 2 3 2 2 1 1 4 4 5 8 5 3 3 2 2 8 14 11 3 2 7 3 5 5 2 3 7 1 1 1 3 3 2 2 5 6 1 4 4 7 3 4 4 8 10 8 4 3 4 0 3 3 4 3 5 2 4 5 3 3 3 3 4 4 1 2 3 5 6
33 34 34 33 31 23 11 11 13 10 10 14 16 16 15 14 9 4 4 1 2 1 1 1 1 3 1 3 5 3 2 2 3 4 3 8 9 2 3 7 5 6 7 3 4 7 4 4 5 6 3 3 5 7 5 4 4 5 6 2 3 4 7 8 6 4 3 4 4 7 3 4 2 5 2 1 3 4 4 3 3 4 4 2 2 3 5 6
35 35 35 34 29 18 10 15 15 8 10 14 16 16 12 8 4 5 2 1 2 2 0 1 1 4 5 4 3 4 4 2 2 3 2 2 4 2 3 3 2 3 5 1 4 7 7 5 4 4 4 6 6 5 4 4 5 3 2 3 6 5 5 4 3 4 3 1 5 8 7 5 0 4 3 3 3 4 5 3 3 4 4 2 3 3 4 4
36 35 34 33 28 16 9 10 8 6 11 14 16 12 6 4 4 4 1 3 2 2 2 1 2 5 8 7 4 4 5 4 2 4 3 3 1 2 2 3 2 2 4 4 4 7 6 5 4 4 4 5 2 0 2 3 1 4 3 3 4 4 4 4 4 3 2 4 5 5 6 6 2 4 5 3 1 5 7 6 6 6 5 4 4 4 4 4
37 35 33 30 24 16 11 8 7 8 10 10 10 6 4 4 2 2 3 3 1 2 2 3 4 6 9 8 6 7 5 3 4 6 6 5 3 4 3 3 2 2 3 3 3 5 5 5 5 2 2 3 4 3 5 6 5 5 3 3 4 2 4 3 3 1 2 4 4 4 6 4 1 4 5 3 2 5 6 7 9 9 7 6 6 5 5 4
38 35 31 25 18 16 15 12 9 7 6 6 6 4 6 4 2 4 3 3 1 3 1 3 6 7 9 7 5 8 7 4 7 6 6 6 5 5 6 7 7 4 3 3 1 3 4 5 1 3 1 0 6 3 2 3 4 4 1 2 3 1 1 1 3 2 2 1 3 2 3 2 2 4 4 4 4 5 6 7 8 9 9 8 7 6 5 5
37 34 29 20 15 14 11 8 6 3 4 5 4 5 5 3 4 3 2 3 3 4 2 1 6 6 8 7 6 7 6 5 7 6 5 5 4 4 6 6 7 7 3 1 1 1 1 4 2 3 2 1 3 4 5 3 0 1 3 4 3 3 3 3 3 2 2 1 1 4 3 2 2 3 3 3 4 4 5 6 7 7 7 6 5 5 5 5
36 33 24 12 7 4 2 1 3 3 2 4 5 4 3 4 3 1 2 3 2 4 7 5 6 8 7 6 6 7 6 5 6 6 5 5 5 5 5 5 8 8 4 1 2 2 2 1 4 3 3 4 3 4 4 5 1 3 1 4 1 2 4 2 2 4 4 2 2 4 2 2 2 3 3 2 3 1 2 5 7 6 6 5 5 5 5 5
36 30 15 6 5 1 2 4 10 9 4 4 5 1 4 4 3 2 2 4 3 4 10 10 2 7 5 5 4 6 6 5 6 6 4 6 6 6 6 5 8 11 8 4 3 1 2 1 4 2 1 2 6 4 3 5 2 2 3 1 5 4 6 3 2 1 5 4 1 2 1 3 2 3 4 3 2 2 2 4 6 7 7 6 6 6 5 5
36 26 10 7 7 1 3 7 15 11 4 5 4 3 4 3 3 2 3 6 6 3 5 7 1 3 2 3 3 4 3 3 5 5 4 5 5 5 6 5 6 12 12 6 2 2 4 1 5 1 2 5 3 3 2 2 5 3 1 4 4 1 3 3 1 3 4 3 1 1 1 2 0 2 4 2 2 2 1 4 5 5 7 7 6 6 7 7
28 18 9 8 2 5 7 12 16 9 5 5 0 3 3 2 3 4 5 6 7 4 3 3 3 1 2 1 4 6 3 1 4 5 3 4 4 4 6 4 2 7 11 8 2 1 5 1 7 1 4 3 3 6 5 5 3 4 3 3 1 2 1 1 2 0 2 2 1 2 3 2 3 3 3 4 4 3 3 3 4 5 6 6 6 6 7 6
14 7 5 3 4 8 12 16 11 5 5 3 1 3 2 3 4 6 7 6 5 3 3 3 2 0 2 2 2 4 4 2 4 4 2 3 4 4 5 3 2 8 10 8 5 1 3 4 4 4 2 2 4 5 1 5 5 3 2 3 2 2 2 1 1 2 4 3 2 0 3 3 4 4 5 7 7 5 5 4 4 4 4 5 5 6 6 6
5 2 3 2 8 13 16 13 5 5 3 1 3 3 4 4 6 8 8 7 4 3 3 1 2 3 1 2 1 2 3 2 2 3 3 3 4 4 4 2 3 6 6 4 5 2 3 4 1 6 3 4 2 0 4 3 1 3 3 4 2 1 0 1 1 0 4 4 3 2 1 4 5 3 6 8 7 6 6 5 4 4 3 3 4 5 5 6
3 2 2 5 14 18 15 7 2 2 2 2 3 3 4 4 5 8 10 10 6 5 4 3 1 3 2 0 1 2 2 2 2 2 4 3 3 3 4 4 5 5 3 5 4 3 2 2 3 2 4 3 2 4 4 6 5 4 2 1 2 1 2 3 3 3 2 4 4 4 2 5 5 2 4 6 6 6 6 6 5 3 3 3 3 4 5 5
1 2 3 5 10 11 8 3 2 1 2 2 3 4 5 5 6 8 9 9 6 4 3 2 2 2 2 0 1 2 3 2 3 3 3 5 5 5 5 7 6 5 5 3 1 2 3 4 4 1 1 2 5 3 3 3 2 3 2 2 4 3 3 4 1 3 1 3 1 3 2 4 4 2 4 4 5 5 5 6 5 3 3 3 3 3 3 4
2 4 8 6 6 6 4 2 3 1 2 4 5 6 7 6 6 8 7 6 5 3 3 2 1 2 3 2 1 2 2 3 3 3 4 6 5 4 3 5 5 6 6 2 0 1 2 4 4 1 3 3 4 5 7 6 5 4 2 1 2 1 2 5 4 2 2 2 1 3 1 4 5 3 4 4 4 5 5 5 6 4 3 2 3 3 3 3
2 5 7 9 3 7 5 1 3 2 4 4 5 8 8 6 8 10 9 6 4 1 2 3 2 2 2 4 4 3 2 2 3 2 3 4 5 6 3 2 4 5 3 3 3 2 1 2 4 3 4 5 6 6 7 6 3 2 2 4 1 2 5 5 2 3 3 1 1 4 2 5 5 1 4 4 5 6 4 4 5 5 4 4 4 4 3 4
4 3 5 8 5 5 4 2 2 2 4 5 7 9 8 6 7 9 9 7 6 3 1 2 3 4 4 4 5 5 3 4 3 2 2 2 4 6 3 3 3 2 4 7 9 6 3 3 4 5 3 0 1 1 2 2 2 1 2 4 3 3 6 4 2 5 2 2 2 5 4 4 3 2 5 4 5 6 4 4 4 4 5 5 4 4 4 4
3 1 3 6 5 2 1 2 3 3 4 5 7 8 7 6 5 6 6 5 5 4 3 4 2 3 4 4 3 4 3 2 2 3 4 3 3 5 3 3 2 1 6 12 10 5 4 3 3 7 7 6 6 6 5 4 1 2 3 2 1 2 4 6 5 3 3 2 2 3 6 4 2 5 5 4 5 6 5 5 5 4 5 5 5 5 4 4
1 2 3 4 3 3 4 4 5 5 5 5 4 6 7 7 7 6 5 3 4 4 2 2 2 2 3 3 2 2 4 5 4 5 6 5 3 5 6 5 3 2 5 9 5 4 5 1 2 8 8 7 8 6 5 2 2 3 4 3 0 2 3 6 5 4 5 5 1 5 5 7 7 7 7 6 6 6 6 6 6 6 6 5 4 4 4 4
1 1 3 4 2 2 4 5 6 8 9 7 3 5 7 7 6 6 4 4 7 6 3 2 3 6 7 5 3 2 3 4 4 4 5 6 5 5 7 6 5 5 3 1 1 5 6 2 4 6 5 5 7 5 3 1 2 3 3 3 2 2 4 5 4 6 7 6 4 4 6 7 7 6 8 9 8 8 8 7 6 5 5 4 4 5 5 5
2 2 3 4 2 2 4 7 9 9 9 7 3 4 6 6 6 6 4 4 5 3 2 3 5 8 9 7 4 1 1 1 2 2 2 3 4 4 4 4 5 7 6 4 3 2 5 1 3 5 3 1 4 4 4 2 1 1 1 4 3 2 5 6 5 6 6 5 7 8 9 7 6 8 10 10 8 7 6 5 5 5 6 6 5 6 6 6
2 2 3 3 3 4 4 5 6 6 7 6 3 4 5 6 8 8 7 6 5 3 4 7 9 9 7 2 3 4 2 5 3 1 0 1 3 3 2 2 4 7 6 3 3 3 4 1 2 4 4 3 2 4 6 4 2 2 4 6 4 1 4 4 4 5 5 4 5 8 9 4 4 8 9 6 5 5 4 5 6 6 7 7 6 6 6 6
4 4 4 2 3 3 3 3 4 5 5 3 2 4 7 9 9 10 8 7 3 4 6 8 11 9 6 6 7 3 1 6 7 3 3 2 1 1 1 0 3 5 6 3 2 2 3 2 1 5 5 3 3 4 5 5 7 6 5 6 5 1 4 2 3 3 5 7 6 7 6 3 3 5 6 4 6 6 5 7 6 6 6 7 7 6 6 7
8 6 4 1 2 3 3 3 4 3 3 3 6 8 8 9 10 9 6 5 4 6 6 6 8 6 5 8 7 4 5 2 5 4 4 3 2 3 3 3 4 3 2 2 2 1 3 4 2 4 4 3 4 3 5 6 7 5 4 2 1 0 1 2 2 0 3 7 6 5 5 6 4 7 6 5 7 6 7 7 5 6 6 5 5 6 6 6
Wind_Direction
4 3 1 1 0 360 359 358 358 355 353 347 341 338 331 325 319 315 309 307 308 308 311 316 324 333 337 338 336 332 328 325 322 273 232 255 224 189 189 203 227 231 195 208 233 243 260 243 242 242 241 231 214 215 188 190 169 140 161 140 176 205 210 182 176 191 172 169 185 180 244 175 325 322 320 329 4 349 332 135 138 127 118 131 133 140 148 149
6 5 4 3 2 2 3 2 360 358 356 350 346 340 330 325 318 315 310 308 308 306 310 315 323 333 335 338 334 330 328 325 316 274 245 216 171 178 198 227 236 231 198 207 229 225 221 233 239 228 210 206 215 204 173 178 163 160 156 142 206 214 207 185 174 191 171 153 166 148 164 159 113 290 310 50 357 338 37 88 116 121 122 126 133 143 147 147
10 9 6 5 5 6 5 3 2 1 359 354 348 340 332 327 321 317 312 309 307 306 310 314 321 330 334 335 332 329 328 330 310 269 250 190 193 199 202 226 231 228 230 227 235 227 221 250 285 281 217 223 216 205 199 187 177 164 123 146 226 204 193 182 166 188 175 147 146 147 154 134 131 221 315 110 110 354 57 99 124 127 136 137 138 144 147 149
11 10 8 8 7 6 4 1 1 1 1 358 351 342 334 327 323 318 314 310 307 306 308 313 320 327 333 332 330 329 329 343 294 255 230 196 211 214 214 229 233 229 235 231 233 235 243 272 291 277 231 251 251 210 204 198 190 164 150 182 203 165 139 175 161 162 165 148 145 153 145 132 155 149 8 137 121 45 302 223 147 138 144 144 142 146 150 152
10 11 10 9 7 5 2 1 360 0 0 359 354 345 335 329 324 319 316 312 308 307 308 311 318 325 329 329 329 326 342 35 278 254 225 215 192 204 219 225 223 218 214 216 226 243 263 278 282 278 247 261 296 306 237 214 167 124 182 177 167 148 136 181 160 141 147 128 125 145 153 153 152 142 180 174 148 184 219 198 157 147 147 148 146 149 154 154
11 11 9 7 6 5 3 1 359 359 358 358 355 348 339 332 326 322 318 314 309 307 307 308 313 322 324 328 332 324 11 121 271 256 225 213 144 180 202 207 201 195 193 198 223 271 286 288 301 320 306 290 304 299 284 253 146 110 261 172 162 155 149 174 158 141 143 127 136 154 150 110 95 99 188 193 211 219 218 177 156 151 154 153 149 152 158 159
12 11 8 5 5 4 3 1 359 357 356 355 354 349 342 334 329 327 321 317 312 310 308 307 311 317 322 332 344 11 89 251 268 244 221 193 151 168 175 188 181 178 189 180 188 248 293 310 318 307 290 292 283 275 318 356 121 123 166 185 161 150 151 163 154 148 148 146 157 140 105 100 129 77 38 234 242 243 263 242 155 153 160 156 155 159 162 166
11 9 7 4 3 2 1 0 358 357 354 353 353 350 343 335 332 329 326 322 318 317 313 311 311 308 328 343 353 16 244 248 233 188 210 184 152 165 171 179 173 177 188 192 203 199 335 300 262 243 257 270 269 275 19 56 92 128 155 173 137 135 156 151 136 136 140 139 134 124 118 146 163 129 352 251 249 254 257 236 151 156 161 159 168 165 163 171
8 7 5 3 1 359 359 358 357 355 353 352 352 350 343 334 332 332 329 327 323 323 319 318 309 301 345 332 113 353 273 211 163 158 184 174 155 163 176 172 172 179 186 222 228 209 193 252 240 219 257 282 314 335 13 103 204 182 150 151 144 151 166 146 127 134 146 146 133 128 116 99 182 189 271 244 238 253 242 164 130 160 165 165 173 169 170 176
3 3 3 1 359 357 355 355 355 353 352 351 350 348 342 333 332 332 331 333 334 330 324 318 268 114 40 18 84 9 257 182 164 150 132 157 159 161 175 170 175 184 196 237 239 217 199 226 254 258 278 285 332 345 354 96 240 163 129 134 145 153 166 150 135 151 157 170 162 133 109 84 293 197 261 253 232 230 188 120 110 149 164 173 174 170 177 178
359 359 359 359 357 354 353 352 351 351 349 348 348 347 341 333 330 332 335 339 345 351 336 310 203 135 97 88 102 254 233 184 172 144 122 133 149 159 166 172 180 190 208 243 258 246 240 251 268 290 274 282 343 332 340 57 103 126 122 104 104 113 117 143 141 171 174 162 181 125 106 134 10 95 229 241 225 195 164 155 149 142 155 172 168 162 178 180
355 355 355 356 354 352 351 350 349 348 347 346 346 345 339 330 327 332 338 344 354 17 16 359 142 137 79 106 189 237 211 193 189 155 138 107 123 157 157 175 191 201 214 226 261 266 270 277 288 299 257 285 354 314 333 78 109 132 126 100 74 21 334 233 182 195 200 157 178 128 71 293 267 226 232 229 217 176 158 175 175 160 153 164 162 147 174 183
351 351 352 352 351 350 349 348 347 345 344 344 343 342 337 325 324 333 342 352 1 20 32 58 127 112 45 260 242 274 261 217 204 173 164 123 135 178 176 194 207 224 232 228 256 281 289 293 300 281 254 50 338 276 321 54 124 140 115 105 127 13 293 242 223 201 212 151 166 138 39 278 243 237 239 223 202 170 159 187 185 177 163 164 172 149 164 182
348 348 348 348 348 347 346 346 344 343 343 341 341 341 333 321 322 331 345 355 9 31 42 69 328 92 93 266 274 305 308 228 199 188 178 175 195 207 214 220 223 235 242 242 258 281 288 296 308 295 268 176 237 297 333 5 125 135 112 103 142 162 250 239 204 172 167 150 163 127 98 254 262 250 241 220 196 172 169 194 189 184 175 174 188 165 173 192
347 346 345 345 345 345 344 344 342 341 341 339 340 339 330 317 315 327 346 353 10 32 28 35 9 58 37 286 290 315 306 185 188 197 195 196 203 210 225 228 230 233 235 247 263 275 285 304 321 296 294 318 360 348 337 342 354 130 142 249 212 173 253 273 220 184 170 161 165 128 129 250 274 258 232 191 189 185 184 201 194 191 184 179 198 179 176 195
346 345 344 343 343 343 342 342 341 339 339 338 338 338 327 309 306 316 327 329 348 3 46 46 40 42 3 281 303 323 234 193 191 203 212 215 214 226 234 227 228 229 227 239 258 270 281 309 314 225 285 331 15 35 2 1 334 344 164 223 214 152 231 293 249 210 203 143 166 188 209 240 277 263 206 159 182 190 193 211 201 198 195 184 198 191 177 187
346 345 343 342 341 342 341 341 340 338 337 336 336 338 321 301 295 301 309 293 296 289 197 352 352 360 274 277 307 299 229 210 200 202 215 224 224 232 229 212 217 219 222 236 249 266 282 315 264 244 6 348 116 100 45 346 289 292 215 193 200 155 164 213 240 219 208 166 184 211 242 250 286 276 178 164 176 178 199 221 209 203 203 196 194 191 188 185
347 344 343 341 340 340 340 340 340 338 336 335 338 337 317 299 290 284 356 140 154 316 281 305 356 41 269 270 270 247 215 205 199 200 213 221 223 229 214 194 202 188 201 260 252 246 255 313 259 319 335 309 155 119 141 231 223 239 218 159 185 169 177 203 205 196 183 178 188 184 235 260 285 285 180 172 163 170 210 231 207 208 205 204 191 190 197 186
346 345 343 341 340 339 339 339 340 338 336 339 344 339 327 332 339 130 123 123 110 321 284 247 160 149 280 261 246 255 232 204 196 200 208 211 218 228 223 210 190 141 130 328 264 226 177 313 14 6 276 248 219 183 195 228 220 228 228 169 183 191 204 217 223 204 170 165 193 181 213 245 248 229 181 176 163 168 228 32 67 220 213 206 193 196 203 188
346 344 342 340 339 338 338 340 340 338 340 347 352 352 2 18 19 62 123 167 195 234 252 224 189 226 281 280 286 272 216 197 189 195 199 201 203 215 233 210 128 117 174 176 242 260 147 180 262 225 230 232 229 210 210 235 239 254 260 202 196 194 221 238 242 226 164 153 213 197 205 228 205 202 182 180 173 156 185 106 186 236 230 216 207 219 216 199
346 344 342 340 338 337 337 339 339 340 348 353 354 7 108 339 358 328 300 246 224 220 235 235 208 226 254 263 278 259 184 183 201 201 199 199 168 146 245 175 126 266 236 194 232 335 119 193 238 228 226 231 231 213 215 236 237 244 244 203 203 196 221 239 218 189 162 147 236 192 194 233 196 179 185 173 157 173 185 174 219 241 248 243 231 243 227 198
346 344 341 339 338 336 335 338 338 338 352 353 355 15 259 303 312 309 309 297 274 221 218 242 228 237 252 255 259 254 255 186 227 240 203 190 150 151 234 168 175 236 235 161 151 339 87 239 244 234 230 238 247 233 228 233 219 222 227 180 257 230 215 265 54 143 155 145 264 170 159 219 193 155 173 155 144 192 205 165 182 235 255 266 243 249 227 170
346 343 341 339 338 335 333 337 334 333 351 346 336 302 321 331 326 315 316 306 291 241 207 231 227 238 252 258 255 240 236 202 203 241 197 173 161 173 172 177 212 251 277 166 176 185 213 246 246 238 229 242 257 246 231 235 226 235 233 208 268 230 178 269 348 135 141 99 158 136 113 43 16 66 64 101 147 135 82 66 51 260 252 254 224 221 175 135
344 343 342 339 338 335 333 334 331 338 345 336 312 308 341 348 345 335 336 237 288 271 218 213 205 214 235 250 244 210 213 199 185 219 186 167 165 165 169 189 209 254 256 222 201 202 229 243 246 235 217 226 246 257 248 283 309 289 230 201 252 241 199 195 154 131 112 27 125 108 71 357 320 127 79 331 34 78 40 34 24 333 316 111 74 83 70 69
343 343 341 339 340 334 331 333 335 342 338 329 314 331 345 350 347 345 356 105 300 282 234 205 191 221 230 235 223 193 184 206 204 190 176 176 174 151 187 192 185 237 250 240 223 222 240 245 241 204 202 214 234 264 266 229 259 308 263 224 240 247 222 142 130 120 111 200 209 119 80 301 280 220 207 259 42 63 348 15 28 337 349 68 87 88 59 34
342 341 339 340 339 335 335 341 333 334 331 321 334 338 343 351 348 349 28 74 315 269 225 173 156 208 222 209 185 144 102 248 230 172 172 189 190 170 208 228 203 242 249 242 228 229 247 247 221 176 189 204 232 263 246 206 200 317 255 221 225 232 164 142 138 123 134 198 225 143 113 235 287 273 214 179 132 205 286 3 22 326 324 346 162 114 83 67
340 340 339 338 338 339 340 309 319 330 320 309 338 341 344 350 348 348 54 47 306 237 189 215 139 174 196 179 148 104 106 254 269 155 177 190 192 160 204 239 293 258 257 44 342 286 245 295 293 150 97 67 33 291 259 218 151 222 247 207 143 106 131 144 138 126 172 187 248 83 108 130 254 257 213 155 152 223 263 304 315 304 303 323 183 130 114 134
338 337 337 335 335 337 325 297 317 326 296 321 338 343 344 345 345 1 91 53 278 202 150 228 202 170 180 161 146 134 217 212 84 244 207 186 186 112 198 234 234 251 263 79 301 281 250 2 236 149 97 99 172 219 232 143 117 230 250 191 111 99 129 139 139 147 159 127 236 289 86 103 245 269 261 143 165 223 237 228 261 277 273 279 152 149 134 141
336 336 335 332 331 332 323 300 301 297 307 331 342 339 338 342 353 59 85 60 207 222 124 102 128 183 136 112 162 199 250 119 138 231 212 181 199 164 198 226 207 242 263 183 221 269 261 245 210 173 152 195 216 223 201 115 135 242 267 260 39 58 109 123 139 149 114 112 202 233 158 119 249 280 290 214 210 218 217 217 232 256 269 248 166 154 135 141
334 334 333 330 327 327 319 297 288 301 336 338 334 330 334 347 35 74 41 256 216 269 337 78 188 164 130 130 204 234 223 216 182 175 148 192 228 229 210 226 182 236 287 261 231 255 257 268 248 213 203 192 202 222 199 166 175 188 326 347 7 25 76 95 113 115 108 230 237 213 175 133 190 276 243 226 229 183 169 178 205 239 267 232 185 162 147 165
332 333 331 327 320 313 301 290 292 342 340 327 326 328 347 26 65 90 193 241 250 251 164 189 212 154 152 165 191 211 210 232 176 145 186 225 274 283 288 340 5 8 339 321 288 280 286 296 266 227 196 182 164 334 301 302 92 95 67 48 37 357 19 34 1 44 123 258 264 189 141 104 100 255 247 246 210 160 157 167 183 204 230 213 194 187 183 194
332 331 328 323 312 288 260 266 298 321 318 324 336 348 61 58 37 173 235 301 315 211 192 201 202 177 177 179 188 195 187 210 202 172 178 194 215 225 209 203 179 43 332 276 291 309 302 267 240 212 206 167 99 33 331 343 32 67 58 51 66 3 358 10 316 306 191 256 270 167 119 86 227 243 248 240 177 172 178 178 175 185 199 199 198 197 190 183
332 331 328 322 303 276 265 277 293 301 320 354 4 34 83 87 232 219 242 316 296 225 234 192 204 189 174 177 208 199 180 200 214 186 171 185 205 225 229 211 175 145 226 228 300 318 311 303 338 84 308 47 100 97 327 334 15 57 132 144 114 117 53 281 277 278 239 276 278 230 100 76 284 275 251 224 198 190 187 182 177 181 190 194 195 193 184 175
333 332 329 319 297 281 280 285 273 276 347 15 41 65 92 148 234 238 236 263 259 265 309 205 210 198 181 193 209 188 180 218 215 179 170 182 195 237 253 232 190 174 190 212 301 244 286 322 334 145 215 9 96 159 163 156 341 253 180 142 132 152 148 191 219 202 223 211 292 328 37 119 223 267 242 201 193 183 174 185 184 182 188 186 185 183 178 179
335 334 333 325 309 301 302 260 181 152 63 46 61 80 145 199 243 246 234 271 309 317 320 299 208 192 206 223 220 194 181 211 212 178 173 189 195 218 230 225 204 182 155 163 233 221 122 258 262 233 189 144 156 208 154 105 40 271 122 76 31 201 148 170 210 164 149 109 8 349 360 186 210 269 290 113 133 147 147 170 175 183 185 168 173 187 182 186
337 339 344 336 328 18 119 140 148 146 122 77 71 138 201 216 225 194 246 306 333 328 326 326 212 179 215 235 242 229 198 188 193 178 192 210 210 222 226 224 196 178 169 175 209 209 87 265 262 282 340 189 179 186 146 119 143 286 43 35 256 198 137 136 300 32 91 90 359 355 336 317 350 319 322 34 67 358 61 139 163 184 183 172 184 190 186 193
338 341 337 310 321 97 148 143 146 144 100 85 113 212 227 234 235 246 313 314 311 317 345 340 314 157 219 255 312 296 232 186 185 181 206 225 232 237 230 242 211 185 177 164 190 192 132 289 274 152 25 288 195 103 35 122 133 110 92 242 254 74 100 109 72 357 53 84 292 350 313 274 18 302 304 334 306 296 213 151 154 173 177 183 198 191 189 195
333 331 313 298 305 145 152 144 143 137 81 70 114 254 246 247 276 311 313 303 308 332 360 304 264 102 81 18 335 327 318 205 206 202 187 204 242 229 202 235 247 172 169 150 137 203 121 65 296 238 106 309 6 56 3 332 56 119 181 231 63 58 324 16 79 48 67 97 244 330 318 245 187 223 242 228 239 227 204 180 152 170 182 185 196 194 191 189
329 332 324 288 158 150 154 151 142 102 69 63 277 262 261 263 278 286 285 290 295 296 281 249 251 16 103 112 348 318 324 311 242 235 174 179 234 239 198 204 127 158 171 149 130 181 110 105 294 290 124 84 17 49 46 321 354 39 16 1 46 140 191 167 121 157 128 134 183 300 332 273 220 213 193 209 223 192 179 188 178 193 199 186 187 187 187 182
344 360 311 221 156 150 151 150 122 64 83 172 215 247 295 291 284 278 277 286 278 253 246 223 326 313 228 105 62 287 296 307 273 267 257 208 219 257 243 188 123 167 175 100 101 118 50 90 188 294 340 66 28 276 166 182 55 47 16 358 3 354 41 92 352 153 129 129 158 144 316 268 254 217 181 199 211 183 167 171 185 200 194 182 176 171 181 186
351 356 293 149 145 150 145 134 54 88 151 248 226 247 284 273 276 282 280 281 267 241 224 193 221 271 259 86 299 288 303 318 317 279 267 254 211 229 240 194 158 166 135 63 76 118 82 97 130 331 359 53 250 249 170 163 157 136 151 178 143 101 72 72 351 315 89 111 149 152 182 261 264 219 183 186 183 173 158 155 170 189 178 167 158 157 173 181
357 343 249 148 150 156 128 107 281 180 184 257 237 247 274 267 266 275 279 281 270 256 258 206 188 257 282 206 170 329 339 311 296 278 298 297 232 215 230 200 163 123 109 92 80 137 118 103 100 89 252 203 241 285 57 93 101 108 149 160 133 121 94 110 183 269 25 50 97 122 124 268 261 199 167 167 169 166 155 153 158 180 189 170 153 151 152 159
34 297 274 281 237 201 102 46 286 291 234 246 243 249 259 261 268 273 277 281 273 281 316 313 339 339 311 323 35 356 338 301 280 263 319 326 282 259 249 186 145 94 96 117 304 12 63 88 87 343 304 302 304 346 21 28 44 57 323 324 107 128 119 134 168 186 72 23 50 84 60 274 267 215 156 151 148 138 145 156 154 170 194 177 167 170 162 169
326 270 282 329 305 184 159 224 256 271 269 266 272 268 259 252 256 257 259 257 243 272 346 296 322 4 332 334 333 301 255 263 283 287 319 330 310 310 335 112 111 100 124 173 160 121 59 110 95 61 5 345 345 358 0 351 17 85 291 321 359 132 109 104 85 64 57 306 120 109 176 255 270 226 135 125 112 113 135 163 161 174 185 182 190 197 196 187
320 249 257 332 352 164 179 202 186 271 301 312 304 290 278 265 251 243 250 247 221 195 162 230 285 317 313 325 317 292 245 214 249 304 306 287 296 305 337 53 71 128 170 162 147 130 130 150 115 105 115 132 291 280 279 294 322 320 314 342 3 88 103 106 76 72 74 291 91 121 184 254 286 194 149 140 128 130 150 163 168 183 182 185 193 196 200 187
352 357 272 322 352 34 334 335 29 3 325 330 315 292 286 292 287 281 284 274 244 220 178 186 228 285 299 313 317 311 310 267 271 316 312 293 280 286 328 30 47 160 146 143 137 110 104 139 131 133 156 180 191 213 211 167 160 278 278 319 31 95 103 104 96 110 167 138 79 184 178 157 199 197 178 177 168 167 176 166 168 186 187 187 187 186 191 184
38 360 352 347 333 353 4 355 11 359 317 321 311 285 301 318 317 319 333 346 319 294 247 212 202 202 251 287 291 300 316 323 331 336 332 327 296 296 335 14 47 75 127 140 137 94 97 137 170 151 170 185 181 211 238 171 154 219 252 281 221 132 101 94 110 175 157 105 327 250 174 157 198 200 184 191 190 184 192 185 184 193 191 184 179 183 180 174
320 326 9 16 324 334 1 327 324 324 313 314 296 276 305 324 326 326 329 341 338 321 297 308 265 233 236 236 213 227 289 310 330 353 360 347 333 337 343 351 13 19 33 137 159 104 108 167 194 162 175 184 172 201 244 209 182 192 217 263 267 131 117 116 154 180 144 129 214 213 157 180 209 194 189 198 190 188 197 193 184 181 181 178 177 182 183 183
334 320 349 11 349 288 288 291 302 311 311 318 309 281 300 316 318 320 312 320 334 330 333 332 293 267 257 237 202 178 301 294 326 360 27 337 336 360 359 341 348 358 4 351 319 75 96 163 200 150 125 172 166 151 121 118 206 249 257 262 258 180 144 139 167 172 136 149 183 154 144 181 198 183 195 202 190 187 187 168 155 162 178 189 192 190 193 201
2 321 335 349 313 279 276 292 310 315 313 321 301 276 303 327 334 338 331 313 307 324 10 358 331 313 299 269 123 104 118 134 130 325 7 42 360 360 18 6 341 339 349 352 324 10 75 165 216 113 85 326 331 79 74 68 73 13 326 320 328 145 143 136 163 154 117 140 168 130 126 166 201 181 187 188 164 151 141 155 172 182 186 189 197 204 204 207
333 306 323 320 284 300 305 306 326 323 307 307 308 316 330 336 345 352 333 309 326 29 28 8 348 341 357 39 63 73 163 146 148 210 237 172 170 224 196 324 333 334 339 345 355 42 90 128 39 70 80 292 314 57 51 37 49 27 338 339 357 128 170 188 212 187 151 152 140 104 117 185 201 158 155 148 139 143 164 179 184 192 192 184 190 202 206 205
350 326 331 343 267 312 335 322 321 313 282 308 336 339 330 323 344 9 347 314 16 38 30 21 7 1 26 29 20 334 294 231 181 209 227 213 220 209 203 250 272 271 293 330 360 83 105 112 125 93 92 268 281 70 72 51 40 352 287 214 155 162 124 58 36 76 160 147 133 136 175 199 171 139 142 153 153 163 186 186 181 195 199 189 187 188 187 192